GFSNIL_sfc_wetblb_273.txt.gz
Wetbulb
41.20 41.78 42.26 42.84 43.58 44.48 44.12 45.33 46.73 47.72 50.09 52.98 55.43 60.24 60.98 60.58 60.55 59.80 58.99 57.81 57.29 55.76
40.93 41.17 41.41 42.58 44.06 44.71 45.22 45.07 45.86 47.20 49.24 51.44 53.73 55.28 58.06 57.55 57.86 58.28 57.99 56.39 55.89 55.44
39.79 40.12 41.35 42.17 42.51 43.88 45.02 45.12 45.56 47.31 48.77 50.54 52.89 54.17 55.43 57.41 57.18 56.56 56.40 56.13 55.82 55.68
38.59 39.08 40.37 40.96 41.85 42.85 44.24 45.03 45.70 46.84 48.22 49.76 51.05 53.79 54.15 55.68 55.91 54.79 52.69 52.35 52.45 49.78
38.16 38.79 38.94 39.44 40.35 41.74 42.69 44.75 44.96 46.29 47.73 47.88 48.34 50.55 53.21 51.15 51.26 50.34 48.84 47.79 48.22 47.68
37.42 37.40 37.35 37.79 38.72 39.82 41.31 42.88 43.81 44.13 44.58 44.94 45.39 46.13 46.56 46.69 46.05 44.86 44.83 46.16 45.78 46.76
37.17 36.72 36.64 37.25 37.57 38.33 39.57 40.28 40.92 41.19 41.98 42.55 43.38 43.57 44.14 43.62 42.76 41.78 41.13 40.96 41.43 42.08
37.21 36.97 36.72 36.45 36.77 37.47 37.86 38.50 39.03 39.43 39.95 40.55 40.96 41.79 41.42 41.40 40.91 39.53 38.00 37.16 36.29 35.72
37.43 37.14 35.96 35.76 35.92 36.38 36.52 36.92 37.33 37.54 38.19 38.13 38.23 38.84 39.78 39.77 38.27 38.03 37.73 36.55 36.49 36.76
34.19 34.01 35.22 35.14 35.66 35.20 35.47 35.86 35.82 36.48 37.29 36.53 36.61 37.63 38.03 37.59 38.86 37.80 36.35 35.32 33.89 32.89
36.27 34.70 33.81 33.77 35.86 35.05 35.55 35.26 35.57 35.84 36.53 36.20 35.63 36.37 37.08 36.77 37.72 36.40 35.51 35.10 34.77 34.13
34.89 34.25 34.61 34.64 34.41 34.09 35.51 35.41 34.72 35.34 35.48 35.01 34.55 35.20 35.94 36.10 35.08 34.05 33.25 33.80 34.68 34.23
34.00 33.53 34.12 33.46 33.05 32.91 32.73 31.70 32.70 32.25 33.83 32.76 33.94 34.29 34.92 35.85 33.70 32.29 31.34 31.79 31.83 32.61
32.10 31.71 33.67 32.37 32.16 32.32 32.06 31.96 31.50 31.68 31.72 31.95 32.69 33.74 33.86 34.73 33.52 32.38 32.13 31.83 31.59 31.87

GFSNIL_sfc_wetblb_276.txt.gz
Wetbulb
40.44 40.41 40.88 42.31 43.26 44.34 44.33 44.87 46.25 46.85 48.92 51.57 54.24 58.48 60.26 59.54 58.87 58.03 56.82 55.89 55.89 55.08
39.91 39.68 40.33 41.35 42.63 43.94 45.45 45.32 45.58 46.80 48.44 50.35 52.80 54.66 58.07 57.39 56.74 57.04 56.31 55.56 55.08 54.63
39.30 39.62 40.63 41.45 41.63 42.71 43.41 45.03 45.83 46.94 48.28 49.57 51.94 54.03 56.40 56.72 56.72 56.18 55.93 55.62 55.44 55.11
38.45 39.11 40.08 40.56 41.14 41.72 42.97 44.37 45.32 46.30 47.64 48.79 50.00 52.72 54.66 56.17 56.06 54.99 53.36 53.24 53.33 50.90
38.20 38.51 38.67 38.96 39.75 41.12 41.87 43.80 44.55 45.31 46.48 46.96 47.66 49.90 52.96 51.48 51.32 50.63 48.78 48.40 48.40 47.70
37.52 37.29 37.18 37.71 38.48 39.67 40.92 42.34 42.84 43.24 43.49 44.13 44.92 46.11 46.92 47.16 46.16 45.40 45.38 46.22 46.38 46.52
36.69 36.60 36.74 37.30 37.75 38.49 39.65 40.22 40.82 41.26 41.80 42.56 43.12 43.51 44.11 43.69 42.63 41.53 40.51 40.04 39.68 39.88
37.05 36.91 36.60 36.41 36.95 37.59 37.98 38.62 39.38 39.83 40.07 40.36 41.02 41.97 41.56 41.15 40.42 38.98 36.99 35.95 35.30 35.35
36.01 36.79 35.82 35.93 36.05 36.51 36.74 37.29 38.02 38.09 38.00 37.93 38.86 39.85 39.91 40.00 38.91 37.96 36.65 35.58 34.99 35.04
31.85 31.88 34.62 35.35 35.44 34.97 35.41 35.99 36.16 36.97 36.88 36.27 37.27 38.95 39.13 37.93 38.22 36.98 35.39 33.75 32.61 31.81
33.04 30.38 30.97 32.51 34.46 34.93 35.26 34.65 34.99 35.35 36.12 35.55 36.07 37.84 38.03 36.63 35.61 34.08 32.93 32.23 31.97 31.63
30.79 30.82 31.14 30.84 30.34 30.67 31.27 32.52 33.23 33.63 34.16 33.49 34.01 36.12 36.59 34.98 32.31 30.87 30.47 31.00 31.18 30.46
30.50 30.43 29.98 30.09 29.90 30.26 29.84 30.67 30.55 31.29 31.06 31.64 31.60 35.04 36.07 34.41 31.18 29.66 29.50 29.81 30.84 31.23
29.46 29.56 29.71 29.13 29.28 29.44 29.44 29.47 27.61 28.55 28.65 29.03 30.21 31.59 34.73 35.55 30.64 29.92 29.42 29.22 28.82 29.41

GFSNIL_sfc_wetblb_279.txt.gz
Wetbulb
39.93 39.70 40.17 41.22 42.76 44.17 44.51 44.97 46.04 46.85 48.94 50.87 53.39 56.53 59.54 58.72 58.29 57.98 56.85 55.97 55.33 54.46
37.86 37.83 38.09 39.84 42.37 43.20 44.89 45.15 45.67 47.08 48.44 50.17 52.20 54.60 58.45 58.88 57.50 57.52 56.42 55.66 55.25 54.65
38.58 39.01 39.26 39.82 40.58 42.04 43.12 44.78 45.74 46.82 48.12 49.82 51.35 53.66 56.24 57.22 56.75 56.03 55.46 55.26 55.02 54.55
37.90 38.64 39.64 39.75 40.11 40.94 42.29 43.96 44.91 45.98 47.60 48.58 49.46 52.01 54.86 56.35 56.15 55.21 53.89 54.11 53.78 51.43
37.80 37.90 38.09 38.43 39.23 40.55 41.06 43.48 44.24 45.14 46.26 46.90 47.61 50.41 52.49 51.55 52.26 51.49 50.18 49.65 49.23 48.24
37.25 37.10 37.15 37.58 38.45 39.67 40.68 41.80 42.53 43.32 43.80 44.67 45.62 46.88 47.68 47.79 46.97 46.25 46.07 46.81 47.01 46.92
36.75 36.79 36.82 37.33 37.86 38.61 39.75 40.20 40.94 41.48 42.05 42.79 43.76 44.43 44.47 44.04 42.72 41.26 40.12 39.87 39.94 40.39
37.05 36.98 36.80 36.85 37.16 37.68 38.22 39.03 39.90 40.13 40.15 40.94 41.86 42.55 42.34 41.49 40.23 38.49 36.55 36.06 35.92 36.14
36.88 36.30 36.09 36.29 36.55 36.82 36.92 37.51 38.28 37.96 38.20 38.82 40.07 39.99 40.16 40.21 38.66 37.58 36.51 34.65 34.01 33.91
30.72 34.10 35.09 35.60 35.89 35.76 35.79 36.35 36.41 36.75 37.00 36.93 38.19 39.52 39.02 37.77 38.23 36.85 35.11 32.75 31.43 30.92
31.26 31.52 32.74 33.05 34.72 35.17 35.26 35.01 35.13 35.41 35.81 35.57 36.55 38.33 37.64 36.09 35.11 33.15 32.02 31.60 31.36 30.83
30.83 30.51 30.66 30.45 30.31 30.60 31.58 33.14 33.87 34.05 34.25 33.06 34.42 36.89 36.93 34.92 31.96 30.61 30.13 30.65 30.46 29.89
30.24 30.69 29.93 29.77 29.51 29.66 29.79 30.88 30.33 31.00 30.64 30.61 32.06 36.03 36.20 33.31 29.88 29.65 29.32 29.97 29.71 30.19
29.23 29.65 29.79 29.33 29.11 29.07 29.21 28.88 26.98 27.66 28.57 28.89 29.84 32.07 36.15 34.69 30.06 29.73 28.99 28.85 28.19 29.05

GFSNIL_sfc_wetblb_282.txt.gz
Wetbulb
38.30 38.99 39.96 40.91 42.02 43.36 44.34 44.96 46.18 47.72 49.94 51.87 54.70 57.42 58.87 58.11 57.56 56.60 56.01 55.60 54.92 53.24
38.56 37.63 37.77 40.56 41.95 42.77 43.68 45.17 46.06 47.47 48.94 50.75 52.87 54.85 58.42 58.03 57.33 57.47 56.58 56.05 55.21 54.60
37.55 37.97 38.17 38.96 40.49 41.50 42.81 44.75 45.46 46.59 48.45 49.84 51.86 54.44 56.59 58.00 57.11 56.36 55.33 55.05 54.84 54.57
37.27 37.65 37.93 37.98 39.02 40.63 42.34 43.95 44.87 45.69 47.40 48.48 50.16 53.09 55.80 56.09 56.19 55.55 54.60 54.51 54.02 52.07
37.72 38.24 38.14 38.46 38.85 40.01 41.00 43.15 43.92 44.88 45.98 47.02 48.45 51.47 54.31 53.84 53.92 53.08 51.71 50.60 50.48 49.19
37.54 37.49 37.42 37.90 38.72 39.93 40.67 42.03 43.19 43.76 43.98 45.05 46.19 47.38 47.65 48.21 47.42 47.26 47.82 48.34 48.21 47.58
37.03 37.02 37.15 37.81 38.24 38.78 39.87 40.50 41.57 41.92 42.36 43.35 44.57 45.09 45.38 44.68 43.26 42.13 41.36 41.32 41.79 43.34
37.31 37.25 37.20 37.24 37.72 38.21 38.57 39.25 40.22 40.51 40.90 41.88 42.33 43.01 42.73 41.84 40.71 39.52 37.88 37.13 37.12 36.75
36.38 36.61 36.41 36.68 36.88 37.35 37.66 38.14 38.46 38.38 38.89 39.86 40.43 40.13 40.23 40.21 38.59 37.66 36.56 34.97 34.48 34.65
33.68 34.12 35.01 35.41 36.29 36.00 36.18 36.77 36.74 37.16 37.66 37.75 38.85 39.53 39.16 37.81 38.31 36.68 34.54 32.26 31.19 30.88
31.60 33.45 32.98 33.35 34.72 34.97 35.40 35.32 35.58 35.76 36.20 36.51 37.27 38.18 37.66 36.24 35.79 33.26 31.78 31.09 30.57 30.32
30.82 30.73 30.76 30.72 31.54 32.08 33.25 33.47 34.05 34.11 34.55 34.39 35.22 37.30 36.64 34.30 31.47 30.84 30.21 30.60 30.14 30.04
30.36 30.61 30.18 30.07 29.77 29.58 29.97 31.46 31.40 31.60 32.01 31.69 33.13 36.42 36.15 32.78 29.79 29.88 29.28 29.62 29.44 30.07
28.99 29.72 29.82 29.39 29.08 29.05 29.21 28.68 26.35 26.86 28.08 28.43 29.75 31.72 36.00 34.32 30.11 29.50 28.54 28.30 27.57 28.73

GFSNIL_sfc_wetblb_285.txt.gz
Wetbulb
36.93 37.35 39.75 40.63 41.91 42.97 43.36 44.75 46.55 48.33 50.32 54.47 58.26 58.75 58.08 57.27 56.62 55.92 55.18 54.67 54.07 53.33
38.13 38.06 38.73 40.30 41.66 42.23 43.45 45.01 46.23 47.79 49.27 51.99 55.27 57.47 58.22 57.49 56.43 56.29 55.64 55.29 54.96 54.19
37.12 37.92 38.22 39.29 40.08 41.12 42.68 44.36 45.58 46.57 48.38 50.29 53.03 55.54 57.87 57.14 57.21 56.69 55.95 55.46 55.06 54.47
37.39 37.15 37.49 37.94 39.30 40.50 42.12 43.50 44.77 45.87 47.36 48.60 50.61 53.81 56.35 56.60 56.22 55.37 54.72 54.56 54.04 52.81
38.12 38.48 38.41 38.59 38.52 40.47 41.03 43.18 44.15 45.25 46.39 47.30 49.04 51.88 54.67 53.65 54.47 54.05 52.50 51.41 50.96 49.98
37.75 37.63 37.64 38.19 38.97 38.75 40.73 42.23 43.23 44.02 44.62 45.73 46.63 48.42 50.00 50.12 49.11 49.66 49.93 50.11 49.15 48.46
37.16 37.23 37.46 38.09 38.58 38.86 40.08 40.96 41.81 42.28 43.23 44.39 45.12 45.77 46.31 45.70 44.50 43.65 43.08 43.05 44.13 45.21
37.52 37.48 37.53 37.56 38.02 38.57 38.99 39.68 40.19 41.05 41.94 42.42 42.83 43.54 43.85 43.10 42.39 41.09 39.59 38.86 38.32 37.77
36.54 36.83 36.52 36.94 37.19 37.69 37.95 38.38 38.77 38.96 39.68 40.06 40.41 40.05 40.23 40.78 39.98 39.00 38.13 36.10 34.79 35.65
34.33 34.59 35.11 35.97 36.44 36.12 36.47 37.07 37.11 37.59 38.28 38.11 38.74 39.25 38.89 37.67 38.24 36.63 34.25 32.95 32.04 31.42
33.76 33.22 33.48 33.60 34.84 35.16 35.66 35.54 35.73 36.05 36.65 36.97 37.22 37.96 37.45 36.20 35.74 33.71 32.09 30.89 30.61 30.69
31.07 31.33 31.41 32.91 32.91 32.98 34.01 33.89 34.23 34.25 34.89 34.92 35.65 37.02 36.40 34.92 33.30 31.37 30.33 30.36 29.99 30.08
30.65 30.74 30.57 30.44 29.96 30.28 32.36 32.09 32.19 32.20 32.48 31.98 33.22 36.57 35.81 33.48 30.22 30.64 29.32 29.63 29.75 31.08
28.91 29.72 30.02 29.32 28.97 28.97 29.28 29.08 27.10 27.12 28.80 30.48 31.02 33.09 35.96 34.44 30.36 29.72 28.20 27.79 26.93 28.50